Weather past 2 weeks in Bantam, Cocos Islands

Now
81 °F

Scattered clouds.


Feels Like: 85 °F
Forecast: 77 / 81 °F
Wind: 17 mph from Southeast

Location: Cocos Island Airport

Current Time: Jul 30, 2014 at 9:48:33 AM

Latest Report: Jul 30, 2014 at 9:30 AM


Visibility: N/A

Pressure: 29.95 "Hg

Humidity: 74%

Dew point: 72 °F

Location of BantamLocation

Historic Weather in Bantam — Graph

°F

Bantam temperature yesterday

Maximum temperature yesterday: 82 °F (at 1:30 PM)
Minimum temperature yesterday: 75 °F (at 6:00 AM)
Average temperature yesterday: 79 °F

Past Weeks' High & Low Weather Summary

 TemperatureHumidityPressure
High82 °F (Jul 17, 12:00 PM)100% (Jul 16, 4:30 AM)30.01 "Hg (Jul 16, 4:30 AM)
Low75 °F (Jul 16, 4:30 AM)54% (Jul 22, 10:30 AM)29.80 "Hg (Jul 15, 1:33 PM)
Average78 °F75%29.92 "Hg
* Reported Jul 15 8:30 AM — Jul 30 8:30 AM, Bantam, Weather by CustomWeather, © 2014

Note: Actual official high and low records may vary slightly from our data, if they occured in-between our weather recording intervals... More about our weather records

Advertising

Bantam weather history for previous 24 hours

 ConditionsComfort  
Time TempWeatherWind HumidityBarometerVisibility
8:30 AM
Jul 30
79 °FScattered clouds.16 mph79%29.95 "HgN/A
8:00 AM79 °FScattered clouds.18 mph79%29.92 "HgN/A
7:30 AM79 °FScattered clouds.20 mph79%29.92 "HgN/A
7:00 AM79 °FPassing clouds.18 mph74%29.92 "HgN/A
6:30 AM77 °FPassing clouds.17 mph79%29.92 "HgN/A
6:00 AM77 °FPassing clouds.17 mph79%29.89 "HgN/A
5:30 AM77 °FPassing clouds.16 mph79%29.92 "HgN/A
5:00 AM77 °FClear.16 mph79%29.89 "HgN/A
4:30 AM77 °FPassing clouds.15 mph79%29.89 "HgN/A
4:00 AM77 °FWarm.17 mph79%29.89 "HgN/A
3:30 AM77 °FPassing clouds.15 mph79%29.92 "HgN/A
3:00 AM77 °FClear.15 mph79%29.92 "HgN/A
2:30 AM77 °FPassing clouds.16 mph79%29.92 "HgN/A
2:00 AM77 °FClear.15 mph74%29.92 "HgN/A
1:30 AM77 °FClear.17 mph79%29.92 "HgN/A
1:00 AM77 °FClear.16 mph79%29.92 "HgN/A
12:30 AM77 °FPassing clouds.16 mph79%29.95 "HgN/A
12:00 AM79 °FClear.18 mph70%29.95 "HgN/A
11:30 PM
Jul 29
79 °FClear.16 mph74%29.95 "HgN/A
11:00 PM79 °FClear.16 mph74%29.95 "HgN/A
10:30 PM79 °FClear.18 mph74%29.95 "HgN/A
10:00 PM79 °FPassing clouds.18 mph74%29.95 "HgN/A
9:30 PM79 °FClear.20 mph74%29.95 "HgN/A
9:00 PM79 °FPassing clouds.18 mph74%29.95 "HgN/A
8:30 PM79 °FOvercast.18 mph74%29.95 "HgN/A
8:00 PM79 °FMostly cloudy.20 mph74%29.92 "HgN/A
7:30 PM79 °FOvercast.20 mph74%29.92 "HgN/A
7:00 PM79 °FWarm.18 mph74%29.92 "HgN/A
6:30 PM79 °FOvercast.18 mph79%29.89 "HgN/A
6:00 PM79 °FMore clouds than sun.18 mph74%29.89 "HgN/A
5:30 PM79 °FMore clouds than sun.18 mph74%29.89 "HgN/A
5:00 PM79 °FPartly sunny.20 mph74%29.89 "HgN/A
4:30 PM81 °FOvercast.17 mph70%29.89 "HgN/A
4:00 PM81 °FPartly sunny.18 mph70%29.89 "HgN/A
3:30 PM81 °FBroken clouds.21 mph70%29.86 "HgN/A
3:00 PM81 °FPartly sunny.20 mph74%29.86 "HgN/A
2:30 PM81 °FPartly sunny.21 mph70%29.86 "HgN/A
2:00 PM81 °FScattered clouds.22 mph70%29.89 "HgN/A
1:30 PM82 °FPartly sunny.21 mph66%29.89 "HgN/A
1:00 PM81 °FPartly sunny.22 mph70%29.89 "HgN/A
12:30 PM81 °FPartly sunny.22 mph70%29.92 "HgN/A
12:00 PM81 °FBroken clouds.22 mph74%29.92 "HgN/A
11:30 AM81 °FOvercast.22 mph70%29.92 "HgN/A
11:00 AM81 °FBroken clouds.21 mph70%29.95 "HgN/A
10:28 AM81 °FBroken clouds.20 mph70%29.95 "HgN/A
10:00 AM79 °FMore clouds than sun.21 mph74%29.95 "HgN/A
9:30 AM79 °FScattered clouds.18 mph79%29.95 "HgN/A
9:00 AM75 °FScattered showers. Broken clouds.20 mph89%29.95 "HgN/A
Weather by CustomWeather, © 2014

See weather overviewHow to use our weather pages